Regional Weather Roundup
Issued by NWS

Home | Current Version | Previous Version | Text Only | Print | Product List | Glossary On
Versions: 1 2 3 4 5 6 7 8 9 10 11 12 13 14 15 16 17 18 19 20 21 22 23 24 25 26 27 28 29 30 31 32 33 34 35 36 37 38 39 40 41 42 43 44 45 46 47 48 49 50
000
ASUS45 KREV 020010
RWRNV
NEVADA REGIONAL WEATHER ROUNDUP
NATIONAL WEATHER SERVICE RENO NV
500 PM PDT TUE SEP 01 2015

NOTE: "FAIR" INDICATES FEW OR NO CLOUDS BELOW 12,000 FEET WITH NO
SIGNIFICANT WEATHER AND/OR OBSTRUCTIONS TO VISIBILITY.

NVZ001-003-004-020100-
WESTERN NEVADA

CITY           SKY/WX    TMP DP  RH WIND       PRES   REMARKS
RENO           MOSUNNY   89  29  11 NW18      29.90F
6HR MIN TEMP:  75; 6HR MAX TEMP:  92;

CARSON CITY    FAIR      84  28  13 W16G24    29.94F
MINDEN         FAIR      84  32  15 W22G30    29.94S
SLIDE MTN        N/A     63  36  36 SW14        N/A
PYRAMID LAKE     N/A     82 N/A N/A N5          N/A
FALLON         PTSUNNY   91  22   8 CALM      29.85F
6HR MIN TEMP:  80; 6HR MAX TEMP:  93;

LOVELOCK       SUNNY     90  26  10 SW10      29.85F
6HR MIN TEMP:  79; 6HR MAX TEMP:  91;

HAWTHORNE      SUNNY     91  25   9 W13       29.84F
$$

NVZ002-CAZ072-073-020100-
NORTHERN AND CENTRAL SIERRA

CITY           SKY/WX    TMP DP  RH WIND       PRES   REMARKS
S. LAKE TAHOE  SUNNY     77  34  21 S13G21    30.08F
6HR MIN TEMP:  71; 6HR MAX TEMP:  80;

TRUCKEE        PTSUNNY   77  30  18 SW12G18   30.07S
                   6HR MAX TEMP:  79;

SQUAW VLY 8000   N/A     64  32  29 SW14        N/A
SUSANVILLE     SUNNY     86  32  14 SW17G23   29.91S
BLUE CANYON    SUNNY     73  31  21 S10       30.08S
MAMMOTH LAKES  FAIR      77  23  13 NE5G25    30.12S
BRIDGEPORT     FAIR      78  26  14 SW16G24   30.08F
$$

NVZ030-031-036-020100-
NORTHERN NEVADA

CITY           SKY/WX    TMP DP  RH WIND       PRES   REMARKS
ELKO           SUNNY     90  26  10 SW9       29.90F
6HR MIN TEMP:  81; 6HR MAX TEMP:  91;

WINNEMUCCA     SUNNY     90  26  10 S12G23    29.86F
6HR MIN TEMP:  78; 6HR MAX TEMP:  90;

WENDOVER       SUNNY     90  37  15 E13       29.85F
$$

NVZ035-037-020100-
CENTRAL NEVADA

CITY           SKY/WX    TMP DP  RH WIND       PRES   REMARKS
ELY            MOSUNNY   83  28  13 SW15G23   30.05F
6HR MIN TEMP:  78; 6HR MAX TEMP:  86;

EUREKA           N/A     88  19   8 SW12G23   29.98F
6HR MIN TEMP:  82; 6HR MAX TEMP:  90;

$$

NVZ013-014-020100-
SOUTH CENTRAL NEVADA

CITY           SKY/WX    TMP DP  RH WIND       PRES   REMARKS
TONOPAH        SUNNY     87  19   8 SW16G25   30.00F
6HR MIN TEMP:  81; 6HR MAX TEMP:  88;

$$

NVZ017-020-022-020100-
SOUTHERN NEVADA

CITY           SKY/WX    TMP DP  RH WIND       PRES   REMARKS
LAS VEGAS      PTSUNNY   98  47  17 S9G18     29.78F
6HR MIN TEMP:  92; 6HR MAX TEMP:  99;

N. LAS VEGAS   PTSUNNY   97  49  19 SW10      29.80F
6HR MIN TEMP:  91; 6HR MAX TEMP:  99;

NELLIS AFB     PTSUNNY   98  53  21 SE17      29.78F
6HR MIN TEMP:  92; 6HR MAX TEMP:  99;

HENDERSON      MOSUNNY   97  48  18 SW13G18   29.85F
MERCURY        SUNNY     93  40  15 SW18G29   29.89F
6HR MIN TEMP:  90; 6HR MAX TEMP:  95;

$$


USA.gov is the U.S. government's official web portal to all federal, state and local government web resources and services.